カタログに戻る

ATLAS D DEB

運用中LEO
NORAD 2329·DEBRIS·🇺🇸 United States

打ち上げ Jul 14, 1966 から Vandenberg Space Force Base

Loading…

次のパス (今後24時間)

TLE

最新Source: Space-Track

元期: Sep 14, 2026, 15:11 UTC

1 02329U 66063D   26257.63323591  .00000742  00000-0  36334-3 0  9996
2 02329 144.2865 189.0161 0022946 146.4144  22.3958 13.92722364 34657

AllMySatでATLAS D DEBをリアルタイム追跡

Download on the App Store